Flag for Israel Weather past 2 weeks in Tel Aviv, Israel

Now
63 °F

Clear.


Feels Like: 63 °F
Forecast: 60 / 77 °F
Wind: 5 mph from Southeast

Location: Ben Gurion International Airport

Current Time: Oct 21, 2014 at 2:25:17 AM

Latest Report: Oct 21, 2014 at 1:50 AM


Visibility: 10 mi

Pressure: 29.95 "Hg

Humidity: 64%

Dew point: 50 °F

Location of Tel AvivLocation

Historic Weather in Tel Aviv — Graph

°F

Tel Aviv temperature yesterday

Maximum temperature yesterday: 77 °F (at 11:50 AM)
Minimum temperature yesterday: 63 °F (at 4:50 AM)
Average temperature yesterday: 70 °F

Past Weeks' High & Low Weather Summary

 TemperatureHumidityPressure
High90 °F (Oct 8, 12:20 PM)89% (Oct 10, 11:20 PM)30.12 "Hg (Oct 10, 11:20 PM)
Low63 °F (Oct 20, 4:50 AM)31% (Oct 8, 12:20 PM)29.74 "Hg (Oct 19, 1:50 PM)
Average74 °F68%29.96 "Hg
* Reported Oct 6 1:20 AM — Oct 21 1:20 AM, Tel Aviv, Weather by CustomWeather, © 2014

Note: Actual official high and low records may vary slightly from our data, if they occured in-between our weather recording intervals... More about our weather records

Advertising

Tel Aviv weather history for previous 24 hours

 ConditionsComfort  
Time TempWeatherWind HumidityBarometerVisibility
1:20 AM
Oct 21
64 °FClear.6 mph60%29.95 "Hg10 mi
12:50 AM64 °FClear.2 mph60%29.95 "Hg10 mi
12:20 AM64 °FClear.3 mph60%29.95 "Hg10 mi
11:50 PM
Oct 20
64 °FClear.5 mph64%29.98 "Hg10 mi
11:20 PM66 °FClear.5 mph60%29.98 "Hg10 mi
10:50 PM66 °FClear.3 mph60%29.98 "Hg10 mi
10:20 PM66 °FClear.5 mph60%29.98 "Hg10 mi
9:50 PM66 °FClear.6 mph64%29.95 "Hg10 mi
9:20 PM66 °FClear.5 mph64%29.95 "Hg10 mi
8:50 PM68 °FClear.5 mph56%29.95 "Hg10 mi
8:20 PM70 °FPassing clouds.5 mph53%29.95 "HgN/A
7:50 PM70 °FClear.7 mph53%29.92 "Hg10 mi
7:20 PM70 °FClear.7 mph53%29.92 "Hg10 mi
6:50 PM72 °FClear.8 mph53%29.92 "Hg10 mi
6:20 PM72 °FClear.10 mph53%29.89 "Hg10 mi
5:50 PM72 °FPassing clouds.10 mph53%29.89 "HgN/A
5:20 PM73 °FPassing clouds.12 mph50%29.89 "HgN/A
4:50 PM75 °FScattered clouds.15 mph47%29.89 "HgN/A
4:20 PM73 °FScattered clouds.13 mph50%29.89 "HgN/A
3:50 PM75 °FScattered clouds.15 mph47%29.89 "HgN/A
3:20 PM75 °FScattered clouds.14 mph47%29.89 "HgN/A
2:50 PM77 °FScattered clouds.16 mph44%29.86 "HgN/A
2:20 PM77 °FScattered clouds.17 mph44%29.86 "HgN/A
1:50 PM77 °FScattered clouds.14 mph44%29.86 "HgN/A
1:20 PM77 °FScattered clouds.13 mph44%29.86 "HgN/A
12:50 PM77 °FScattered clouds.15 mph47%29.89 "HgN/A
12:20 PM77 °FScattered clouds.12 mph44%29.89 "HgN/A
11:50 AM77 °FScattered clouds.6 mph47%29.89 "HgN/A
11:20 AM75 °FScattered clouds.3 mph54%29.89 "HgN/A
10:50 AM75 °FScattered clouds.3 mph61%29.92 "HgN/A
10:20 AM73 °FPassing clouds.3 mph65%29.92 "HgN/A
9:50 AM72 °FPassing clouds.5 mph69%29.89 "HgN/A
9:20 AM70 °FPassing clouds.6 mph73%29.89 "HgN/A
8:50 AM68 °FPassing clouds.6 mph78%29.89 "HgN/A
8:20 AM66 °FScattered clouds.7 mph78%29.89 "HgN/A
7:50 AM64 °FPassing clouds.6 mph83%29.86 "HgN/A
6:20 AM63 °FPassing clouds.5 mph88%29.83 "HgN/A
5:50 AM63 °FPassing clouds.3 mph88%29.83 "HgN/A
5:20 AM64 °FPassing clouds.1 mph83%29.83 "HgN/A
4:50 AM63 °FPassing clouds.3 mph88%29.83 "HgN/A
4:20 AM64 °FPassing clouds.2 mph83%29.83 "HgN/A
3:50 AM64 °FPassing clouds.3 mph83%29.83 "HgN/A
3:20 AM64 °FPassing clouds.6 mph83%29.83 "HgN/A
2:50 AM64 °FPassing clouds.6 mph83%29.83 "HgN/A
2:20 AM64 °FClear.6 mph83%29.83 "Hg10 mi
Weather by CustomWeather, © 2014

See weather overviewHow to use our weather pages